| time (UTC) | temp F | wind direction | speed MPH | gust MPH | rain 1hr in | rain 24hr in | rain mn in | humidity % | barometer mb |
| 20260509214649 | 91 | 259 | 1.0 | 6.0 | 0.00 | 0.00 | 0.00 | 56 | 1009.3 |
| 20260509214146 | 90 | 178 | 1.0 | 4.0 | 0.00 | 0.00 | 0.00 | 56 | 1009.2 |
| 20260509213646 | 90 | 225 | 1.0 | 5.0 | 0.00 | 0.00 | 0.00 | 54 | 1009.3 |
| 20260509213144 | 91 | 225 | 1.0 | 5.0 | 0.00 | 0.00 | 0.00 | 54 | 1009.3 |
| 20260509212642 | 92 | 211 | 2.0 | 8.0 | 0.00 | 0.00 | 0.00 | 54 | 1009.5 |
| 20260509212415 | 91 | 191 | 2.0 | 8.0 | 0.00 | 0.00 | 0.00 | 55 | 1009.5 |
| 20260509211644 | 91 | 169 | 2.0 | 8.0 | 0.00 | 0.00 | 0.00 | 55 | 1009.5 |
| 20260509211414 | 91 | 235 | 1.0 | 7.0 | 0.00 | 0.00 | 0.00 | 55 | 1009.6 |
| 20260509210642 | 90 | 229 | 2.0 | 7.0 | 0.00 | 0.00 | 0.00 | 55 | 1009.7 |
| 20260509210142 | 90 | 224 | 2.0 | 7.0 | 0.00 | 0.00 | 0.00 | 55 | 1009.8 |
| 20260509205642 | 91 | 256 | 2.0 | 4.0 | 0.00 | 0.00 | 0.00 | 57 | 1009.9 |
| 20260509205142 | 91 | 253 | 2.0 | 4.0 | 0.00 | 0.00 | 0.00 | 56 | 1009.9 |
| 20260509204642 | 91 | 254 | 2.0 | 5.0 | 0.00 | 0.00 | 0.00 | 57 | 1010.0 |
| 20260509204140 | 91 | 296 | 1.0 | 8.0 | 0.00 | 0.00 | 0.00 | 57 | 1010.0 |
| 20260509203637 | 90 | 237 | 2.0 | 8.0 | 0.00 | 0.00 | 0.00 | 58 | 1010.2 |
| 20260509203138 | 90 | 250 | 2.0 | 7.0 | 0.00 | 0.00 | 0.00 | 58 | 1010.2 |
| 20260509202908 | 89 | 219 | 2.0 | 8.0 | 0.00 | 0.00 | 0.00 | 58 | 1010.5 |
| 20260509202138 | 89 | 196 | 1.0 | 8.0 | 0.00 | 0.00 | 0.00 | 61 | 1010.5 |
| 20260509201632 | 88 | 288 | 1.0 | 7.0 | 0.00 | 0.00 | 0.00 | 63 | 1010.6 |
| 20260509201126 | 87 | 290 | 2.0 | 7.0 | 0.00 | 0.00 | 0.00 | 62 | 1010.7 |
| 20260509200620 | 88 | 196 | 2.0 | 8.0 | 0.00 | 0.00 | 0.00 | 61 | 1010.8 |
| 20260509200113 | 88 | 210 | 2.0 | 8.0 | 0.00 | 0.00 | 0.00 | 61 | 1010.9 |
| 20260509195607 | 89 | 221 | 2.0 | 6.0 | 0.00 | 0.00 | 0.00 | 60 | 1011.0 |
| 20260509195107 | 89 | 171 | 2.0 | 9.0 | 0.00 | 0.00 | 0.00 | 61 | 1011.1 |
| 20260509194838 | 89 | 163 | 2.0 | 9.0 | 0.00 | 0.00 | 0.00 | 60 | 1011.1 |
| 20260509194107 | 89 | 171 | 2.0 | 7.0 | 0.00 | 0.00 | 0.00 | 62 | 1011.2 |
| 20260509193605 | 88 | 213 | 2.0 | 7.0 | 0.00 | 0.00 | 0.00 | 64 | 1011.2 |
| 20260509193106 | 87 | 245 | 2.0 | 7.0 | 0.00 | 0.00 | 0.00 | 63 | 1011.4 |
| 20260509192606 | 87 | 339 | 1.0 | 6.0 | 0.00 | 0.00 | 0.00 | 63 | 1011.4 |
| 20260509192106 | 87 | 217 | 1.0 | 6.0 | 0.00 | 0.00 | 0.00 | 64 | 1011.4 |
| 20260509191606 | 87 | 256 | 1.0 | 6.0 | 0.00 | 0.00 | 0.00 | 63 | 1011.4 |
| 20260509191106 | 87 | 263 | 1.0 | 6.0 | 0.00 | 0.00 | 0.00 | 63 | 1011.5 |
| 20260509190606 | 87 | 261 | 2.0 | 6.0 | 0.00 | 0.00 | 0.00 | 64 | 1011.5 |
| 20260509185606 | 87 | 274 | 2.0 | 7.0 | 0.00 | 0.00 | 0.00 | 63 | 1011.6 |
| 20260509185106 | 86 | 221 | 2.0 | 7.0 | 0.00 | 0.00 | 0.00 | 64 | 1011.7 |
| 20260509184605 | 86 | 215 | 2.0 | 7.0 | 0.00 | 0.00 | 0.00 | 66 | 1011.7 |
| 20260509184105 | 86 | 300 | 2.0 | 7.0 | 0.00 | 0.00 | 0.00 | 64 | 1011.8 |
| 20260509183606 | 87 | 213 | 2.0 | 7.0 | 0.00 | 0.00 | 0.00 | 63 | 1011.9 |
| 20260509183104 | 87 | 227 | 2.0 | 7.0 | 0.00 | 0.00 | 0.00 | 63 | 1011.9 |
| 20260509182603 | 86 | 244 | 2.0 | 7.0 | 0.00 | 0.00 | 0.00 | 67 | 1011.9 |
| 20260509182056 | 86 | 240 | 2.0 | 8.0 | 0.00 | 0.00 | 0.00 | 68 | 1012.0 |
| 20260509181555 | 86 | 248 | 3.0 | 9.0 | 0.00 | 0.00 | 0.00 | 67 | 1012.0 |
| 20260509181054 | 86 | 246 | 3.0 | 9.0 | 0.00 | 0.00 | 0.00 | 67 | 1012.2 |
| 20260509180835 | 86 | 224 | 3.0 | 10.0 | 0.00 | 0.00 | 0.00 | 65 | 1012.2 |
| 20260509180054 | 85 | 186 | 2.0 | 10.0 | 0.00 | 0.00 | 0.00 | 68 | 1012.1 |
| 20260509175552 | 85 | 259 | 3.0 | 7.0 | 0.00 | 0.00 | 0.00 | 69 | 1012.2 |
| 20260509175054 | 85 | 191 | 3.0 | 7.0 | 0.00 | 0.00 | 0.00 | 68 | 1012.2 |
| 20260509174551 | 85 | 232 | 3.0 | 8.0 | 0.00 | 0.00 | 0.00 | 69 | 1012.4 |
| 20260509174323 | 84 | 189 | 2.0 | 8.0 | 0.00 | 0.00 | 0.00 | 71 | 1012.5 |
| 20260509173821 | 84 | 252 | 3.0 | 10.0 | 0.00 | 0.00 | 0.00 | 72 | 1012.6 |
| 20260509173049 | 84 | 294 | 2.0 | 10.0 | 0.00 | 0.00 | 0.00 | 72 | 1012.6 |
| 20260509172550 | 83 | 211 | 1.0 | 7.0 | 0.00 | 0.00 | 0.00 | 73 | 1012.5 |
| 20260509172048 | 83 | 221 | 2.0 | 7.0 | 0.00 | 0.00 | 0.00 | 73 | 1012.7 |
| 20260509171545 | 83 | 249 | 2.0 | 7.0 | 0.00 | 0.00 | 0.00 | 74 | 1012.8 |
| 20260509171045 | 83 | 239 | 2.0 | 7.0 | 0.00 | 0.00 | 0.00 | 76 | 1012.8 |
| 20260509170545 | 82 | 262 | 1.0 | 7.0 | 0.00 | 0.00 | 0.00 | 76 | 1012.5 |
| 20260509170045 | 82 | 237 | 1.0 | 4.0 | 0.00 | 0.00 | 0.00 | 75 | 1012.6 |
| 20260509165550 | 82 | 234 | 1.0 | 6.0 | 0.00 | 0.00 | 0.00 | 74 | 1012.8 |
| 20260509165040 | 82 | 231 | 2.0 | 6.0 | 0.00 | 0.00 | 0.00 | 75 | 1012.9 |
| 20260509164534 | 82 | 283 | 2.0 | 7.0 | 0.00 | 0.00 | 0.00 | 75 | 1012.9 |
| 20260509163522 | 82 | 208 | 2.0 | 9.0 | 0.00 | 0.00 | 0.00 | 74 | 1012.7 |
| 20260509163021 | 82 | 274 | 2.0 | 8.0 | 0.00 | 0.00 | 0.00 | 74 | 1012.6 |
| 20260509162753 | 81 | 175 | 1.0 | 7.0 | 0.00 | 0.00 | 0.00 | 77 | 1012.6 |
| 20260509162023 | 80 | 171 | 2.0 | 6.0 | 0.00 | 0.00 | 0.00 | 80 | 1012.5 |
| 20260509161752 | 80 | 174 | 3.0 | 8.0 | 0.00 | 0.00 | 0.00 | 81 | 1012.4 |
| 20260509161021 | 79 | 172 | 3.0 | 8.0 | 0.00 | 0.00 | 0.00 | 81 | 1012.7 |
| 20260509160519 | 79 | 223 | 2.0 | 9.0 | 0.00 | 0.00 | 0.00 | 81 | 1013.0 |
| 20260509160019 | 80 | 198 | 2.0 | 9.0 | 0.00 | 0.00 | 0.00 | 81 | 1012.9 |
| 20260509155519 | 80 | 176 | 2.0 | 8.0 | 0.00 | 0.00 | 0.00 | 81 | 1012.8 |
| 20260509154516 | 80 | 166 | 2.0 | 9.0 | 0.00 | 0.00 | 0.00 | 81 | 1013.2 |
| 20260509154016 | 79 | 156 | 3.0 | 9.0 | 0.00 | 0.00 | 0.00 | 82 | 1013.1 |
| 20260509153745 | 78 | 169 | 3.0 | 6.0 | 0.00 | 0.00 | 0.00 | 83 | 1013.1 |
| 20260509153013 | 78 | 157 | 1.0 | 6.0 | 0.00 | 0.00 | 0.00 | 86 | 1013.1 |
| 20260509152513 | 77 | 159 | 1.0 | 5.0 | 0.00 | 0.00 | 0.00 | 87 | 1013.2 |
| 20260509152015 | 76 | 28 | 0.0 | 3.0 | 0.00 | 0.00 | 0.00 | 90 | 1013.2 |
| 20260509151511 | 75 | 28 | 0.0 | 3.0 | 0.00 | 0.00 | 0.00 | 92 | 1013.3 |
| 20260509151009 | 74 | 28 | 0.0 | 3.0 | 0.00 | 0.00 | 0.00 | 91 | 1013.2 |
| 20260509150738 | 74 | 28 | 0.0 | 2.0 | 0.00 | 0.00 | 0.00 | 92 | 1013.3 |
| 20260509145730 | 74 | 28 | 0.0 | 2.0 | 0.00 | 0.00 | 0.00 | 93 | 1013.5 |
| 20260509144952 | 74 | 28 | 1.0 | 2.0 | 0.00 | 0.00 | 0.00 | 93 | 1013.4 |
| 20260509144447 | 73 | 28 | 0.0 | 2.0 | 0.00 | 0.00 | 0.00 | 93 | 1013.3 |
| 20260509143941 | 73 | 28 | 0.0 | 1.0 | 0.00 | 0.00 | 0.00 | 93 | 1013.4 |
| 20260509143707 | 73 | 28 | 0.0 | 2.0 | 0.00 | 0.00 | 0.00 | 93 | 1013.4 |
| 20260509142929 | 73 | 28 | 0.0 | 2.0 | 0.00 | 0.00 | 0.00 | 94 | 1013.3 |
| 20260509142423 | 73 | 28 | 0.0 | 2.0 | 0.00 | 0.00 | 0.00 | 94 | 1013.3 |
| 20260509141917 | 73 | 28 | 0.0 | 2.0 | 0.00 | 0.00 | 0.00 | 94 | 1013.3 |
| 20260509141411 | 73 | 28 | 0.0 | 4.0 | 0.00 | 0.00 | 0.00 | 94 | 1013.2 |
| 20260509140904 | 73 | 28 | 1.0 | 4.0 | 0.00 | 0.00 | 0.00 | 94 | 1013.1 |
| 20260509140359 | 73 | 28 | 1.0 | 4.0 | 0.00 | 0.00 | 0.00 | 94 | 1013.1 |
| 20260509135853 | 73 | 28 | 1.0 | 6.0 | 0.00 | 0.00 | 0.00 | 95 | 1012.7 |
| 20260509135618 | 73 | 28 | 1.0 | 6.0 | 0.00 | 0.00 | 0.00 | 95 | 1012.2 |
| 20260509134841 | 73 | 55 | 0.0 | 2.0 | 0.00 | 0.00 | 0.00 | 95 | 1012.1 |
| 20260509134607 | 73 | 55 | 1.0 | 3.0 | 0.00 | 0.00 | 0.00 | 95 | 1012.1 |
| 20260509133829 | 73 | 55 | 0.0 | 3.0 | 0.00 | 0.00 | 0.00 | 95 | 1012.2 |
| 20260509133323 | 73 | 55 | 0.0 | 1.0 | 0.00 | 0.00 | 0.00 | 95 | 1012.6 |
| 20260509132816 | 73 | 55 | 0.0 | 1.0 | 0.00 | 0.00 | 0.00 | 95 | 1012.6 |
| 20260509132311 | 73 | 55 | 0.0 | 1.0 | 0.00 | 0.00 | 0.00 | 95 | 1012.7 |
| 20260509132035 | 73 | 55 | 1.0 | 3.0 | 0.00 | 0.00 | 0.00 | 95 | 1012.7 |
| 20260509131259 | 73 | 55 | 1.0 | 3.0 | 0.00 | 0.00 | 0.00 | 96 | 1012.6 |
| 20260509130755 | 73 | 55 | 1.0 | 3.0 | 0.00 | 0.00 | 0.00 | 96 | 1012.6 |
| 20260509130255 | 72 | 55 | 1.0 | 3.0 | 0.00 | 0.00 | 0.00 | 95 | 1012.4 |
| 20260509125755 | 72 | 55 | 1.0 | 3.0 | 0.00 | 0.00 | 0.00 | 96 | 1012.5 |
| 20260509125255 | 72 | 55 | 1.0 | 3.0 | 0.00 | 0.00 | 0.00 | 95 | 1012.9 |
| 20260509124755 | 72 | 55 | 1.0 | 3.0 | 0.00 | 0.00 | 0.00 | 95 | 1012.7 |
| 20260509124255 | 72 | 55 | 0.0 | 2.0 | 0.00 | 0.00 | 0.00 | 95 | 1012.7 |
| 20260509123255 | 72 | 55 | 0.0 | 3.0 | 0.00 | 0.00 | 0.00 | 96 | 1012.8 |
| 20260509122755 | 72 | 55 | 1.0 | 5.0 | 0.00 | 0.00 | 0.00 | 95 | 1012.7 |
| 20260509122255 | 72 | 55 | 1.0 | 5.0 | 0.00 | 0.00 | 0.00 | 95 | 1012.7 |
| 20260509121755 | 72 | 55 | 1.0 | 4.0 | 0.00 | 0.00 | 0.00 | 95 | 1012.6 |
| 20260509121254 | 72 | 55 | 1.0 | 4.0 | 0.00 | 0.00 | 0.00 | 95 | 1012.7 |
| 20260509120755 | 72 | 55 | 2.0 | 6.0 | 0.00 | 0.00 | 0.00 | 95 | 1012.9 |
| 20260509120255 | 72 | 53 | 2.0 | 6.0 | 0.00 | 0.00 | 0.00 | 95 | 1012.8 |
| 20260509115754 | 72 | 30 | 2.0 | 6.0 | 0.00 | 0.00 | 0.00 | 95 | 1012.8 |
| 20260509115254 | 72 | 70 | 2.0 | 9.0 | 0.00 | 0.00 | 0.00 | 95 | 1012.8 |
| 20260509114755 | 72 | 74 | 2.0 | 9.0 | 0.00 | 0.00 | 0.00 | 95 | 1012.6 |
| 20260509114255 | 72 | 84 | 1.0 | 7.0 | 0.00 | 0.00 | 0.00 | 95 | 1012.4 |
| 20260509113755 | 72 | 88 | 1.0 | 4.0 | 0.00 | 0.00 | 0.00 | 95 | 1012.1 |
| 20260509113526 | 72 | 88 | 1.0 | 3.0 | 0.00 | 0.00 | 0.00 | 95 | 1011.9 |
| 20260509112757 | 72 | 88 | 1.0 | 3.0 | 0.00 | 0.00 | 0.00 | 95 | 1011.9 |
| 20260509112253 | 72 | 88 | 1.0 | 3.0 | 0.00 | 0.00 | 0.00 | 95 | 1011.9 |
| 20260509111750 | 72 | 88 | 1.0 | 3.0 | 0.00 | 0.00 | 0.00 | 95 | 1011.7 |
| 20260509111249 | 72 | 88 | 1.0 | 3.0 | 0.00 | 0.00 | 0.00 | 95 | 1011.8 |
| 20260509110749 | 72 | 88 | 0.0 | 3.0 | 0.00 | 0.00 | 0.00 | 95 | 1011.7 |
| 20260509110519 | 72 | 88 | 0.0 | 3.0 | 0.00 | 0.00 | 0.00 | 95 | 1011.8 |
| 20260509105749 | 72 | 88 | 1.0 | 3.0 | 0.00 | 0.00 | 0.00 | 95 | 1011.8 |
| 20260509105248 | 72 | 88 | 1.0 | 3.0 | 0.00 | 0.00 | 0.00 | 95 | 1011.9 |
| 20260509105017 | 72 | 88 | 1.0 | 6.0 | 0.00 | 0.00 | 0.00 | 95 | 1011.8 |
| 20260509104245 | 72 | 88 | 1.0 | 5.0 | 0.00 | 0.00 | 0.00 | 95 | 1011.8 |
| 20260509103745 | 72 | 90 | 1.0 | 6.0 | 0.00 | 0.00 | 0.00 | 95 | 1011.9 |
| 20260509103518 | 72 | 90 | 1.0 | 6.0 | 0.00 | 0.00 | 0.00 | 95 | 1011.9 |
| 20260509102743 | 72 | 97 | 1.0 | 5.0 | 0.00 | 0.00 | 0.00 | 94 | 1011.9 |
| 20260509102242 | 72 | 155 | 1.0 | 5.0 | 0.00 | 0.00 | 0.00 | 94 | 1012.0 |
| 20260509101742 | 72 | 156 | 1.0 | 5.0 | 0.00 | 0.00 | 0.00 | 94 | 1012.0 |
| 20260509101235 | 72 | 159 | 1.0 | 4.0 | 0.00 | 0.00 | 0.00 | 94 | 1012.0 |
| 20260509100730 | 72 | 159 | 1.0 | 4.0 | 0.00 | 0.00 | 0.00 | 94 | 1011.8 |
| 20260509100454 | 72 | 168 | 0.0 | 2.0 | 0.00 | 0.00 | 0.00 | 94 | 1011.6 |
| 20260509095718 | 72 | 168 | 0.0 | 2.0 | 0.00 | 0.00 | 0.00 | 94 | 1011.5 |
| 20260509095212 | 72 | 168 | 0.0 | 2.0 | 0.00 | 0.00 | 0.00 | 94 | 1011.3 |
| 20260509094706 | 72 | 168 | 0.0 | 0.0 | 0.00 | 0.00 | 0.00 | 94 | 1011.1 |
| 20260509094204 | 72 | 168 | 0.0 | 0.0 | 0.00 | 0.00 | 0.00 | 94 | 1011.0 |
| 20260509093924 | 72 | 168 | 0.0 | 0.0 | 0.00 | 0.00 | 0.00 | 94 | 1010.9 |
| 20260509093420 | 72 | 168 | 0.0 | 4.0 | 0.00 | 0.00 | 0.00 | 94 | 1010.9 |
| 20260509092641 | 72 | 168 | 0.0 | 4.0 | 0.00 | 0.00 | 0.00 | 94 | 1010.7 |
| 20260509092408 | 72 | 168 | 1.0 | 4.0 | 0.00 | 0.00 | 0.00 | 94 | 1010.8 |
| 20260509091630 | 72 | 168 | 1.0 | 4.0 | 0.00 | 0.00 | 0.00 | 94 | 1010.8 |
| 20260509091124 | 72 | 171 | 0.0 | 0.0 | 0.00 | 0.00 | 0.00 | 94 | 1010.9 |
| 20260509090618 | 72 | 171 | 0.0 | 4.0 | 0.00 | 0.00 | 0.00 | 94 | 1010.9 |
| 20260509090344 | 72 | 171 | 1.0 | 4.0 | 0.00 | 0.00 | 0.00 | 94 | 1011.0 |
| 20260509085059 | 72 | 173 | 0.0 | 2.0 | 0.00 | 0.00 | 0.00 | 93 | 1011.0 |
| 20260509084554 | 72 | 173 | 0.0 | 1.0 | 0.00 | 0.00 | 0.00 | 93 | 1010.9 |
| 20260509084048 | 72 | 173 | 0.0 | 1.0 | 0.00 | 0.00 | 0.00 | 93 | 1010.9 |
| 20260509083542 | 72 | 173 | 0.0 | 0.0 | 0.00 | 0.00 | 0.00 | 93 | 1011.0 |
| 20260509083036 | 72 | 173 | 0.0 | 0.0 | 0.00 | 0.00 | 0.00 | 93 | 1011.1 |
| 20260509082529 | 72 | 173 | 0.0 | 1.0 | 0.00 | 0.00 | 0.00 | 93 | 1011.1 |
| 20260509082024 | 72 | 173 | 0.0 | 3.0 | 0.00 | 0.00 | 0.00 | 93 | 1011.2 |
| 20260509081518 | 72 | 173 | 0.0 | 3.0 | 0.00 | 0.00 | 0.00 | 93 | 1011.3 |
| 20260509081244 | 72 | 173 | 1.0 | 3.0 | 0.00 | 0.00 | 0.00 | 93 | 1011.3 |
| 20260509080738 | 72 | 173 | 1.0 | 3.0 | 0.00 | 0.00 | 0.00 | 93 | 1011.4 |
| 20260509080000 | 72 | 173 | 1.0 | 3.0 | 0.00 | 0.00 | 0.00 | 93 | 1011.4 |
| 20260509075453 | 72 | 173 | 1.0 | 6.0 | 0.00 | 0.00 | 0.00 | 93 | 1011.4 |
| 20260509074948 | 72 | 173 | 1.0 | 6.0 | 0.00 | 0.00 | 0.00 | 93 | 1011.3 |
| 20260509074442 | 72 | 168 | 1.0 | 6.0 | 0.00 | 0.00 | 0.00 | 93 | 1011.2 |
| 20260509074208 | 72 | 169 | 2.0 | 6.0 | 0.00 | 0.00 | 0.00 | 93 | 1011.0 |
| 20260509073430 | 72 | 166 | 1.0 | 6.0 | 0.00 | 0.00 | 0.00 | 93 | 1010.9 |
| 20260509072923 | 72 | 112 | 0.0 | 3.0 | 0.00 | 0.00 | 0.00 | 93 | 1011.0 |
| 20260509072418 | 72 | 112 | 0.0 | 2.0 | 0.00 | 0.00 | 0.00 | 93 | 1011.2 |
| 20260509071406 | 72 | 112 | 0.0 | 4.0 | 0.00 | 0.00 | 0.00 | 93 | 1011.2 |
| 20260509070900 | 72 | 112 | 1.0 | 4.0 | 0.00 | 0.00 | 0.00 | 92 | 1011.1 |
| 20260509070354 | 72 | 112 | 1.0 | 4.0 | 0.00 | 0.00 | 0.00 | 92 | 1011.1 |
| 20260509065847 | 72 | 111 | 1.0 | 3.0 | 0.00 | 0.00 | 0.00 | 92 | 1011.2 |
| 20260509065342 | 72 | 111 | 1.0 | 3.0 | 0.00 | 0.00 | 0.00 | 92 | 1011.2 |
| 20260509065107 | 72 | 111 | 1.0 | 3.0 | 0.00 | 0.00 | 0.00 | 92 | 1011.3 |
| 20260509064601 | 72 | 111 | 0.0 | 2.0 | 0.00 | 0.00 | 0.00 | 92 | 1011.5 |
| 20260509064054 | 72 | 111 | 0.0 | 2.0 | 0.00 | 0.00 | 0.00 | 92 | 1011.6 |
| 20260509063318 | 72 | 111 | 1.0 | 3.0 | 0.00 | 0.00 | 0.00 | 92 | 1011.5 |
| 20260509062812 | 72 | 111 | 1.0 | 4.0 | 0.00 | 0.00 | 0.00 | 92 | 1011.7 |
| 20260509062308 | 72 | 111 | 1.0 | 4.0 | 0.00 | 0.00 | 0.00 | 92 | 1011.6 |
| 20260509061808 | 72 | 111 | 1.0 | 4.0 | 0.00 | 0.00 | 0.00 | 92 | 1011.6 |
| 20260509061307 | 72 | 111 | 1.0 | 4.0 | 0.00 | 0.00 | 0.00 | 92 | 1011.7 |
| 20260509060806 | 72 | 110 | 0.0 | 2.0 | 0.00 | 0.00 | 0.00 | 92 | 1011.8 |
| 20260509060536 | 72 | 110 | 1.0 | 3.0 | 0.00 | 0.00 | 0.00 | 91 | 1011.9 |
| 20260509060032 | 72 | 110 | 1.0 | 3.0 | 0.00 | 0.00 | 0.00 | 91 | 1011.9 |
| 20260509055300 | 72 | 109 | 1.0 | 3.0 | 0.00 | 0.00 | 0.00 | 91 | 1011.9 |
| 20260509054800 | 72 | 109 | 1.0 | 3.0 | 0.00 | 0.00 | 0.00 | 91 | 1012.0 |
| 20260509054300 | 71 | 109 | 1.0 | 4.0 | 0.00 | 0.00 | 0.00 | 91 | 1011.8 |
| 20260509053758 | 71 | 109 | 0.0 | 4.0 | 0.00 | 0.00 | 0.00 | 91 | 1012.0 |
| 20260509053257 | 71 | 109 | 0.0 | 0.0 | 0.00 | 0.00 | 0.00 | 91 | 1012.0 |
| 20260509052758 | 71 | 109 | 0.0 | 0.0 | 0.00 | 0.00 | 0.00 | 91 | 1012.1 |
| 20260509052258 | 71 | 109 | 0.0 | 0.0 | 0.00 | 0.00 | 0.00 | 91 | 1012.2 |
| 20260509051258 | 71 | 109 | 0.0 | 1.0 | 0.00 | 0.00 | 0.00 | 91 | 1012.4 |
| 20260509050801 | 71 | 109 | 0.0 | 1.0 | 0.00 | 0.00 | 0.00 | 91 | 1012.4 |
| 20260509050300 | 71 | 109 | 0.0 | 1.0 | 0.00 | 0.00 | 0.00 | 91 | 1012.4 |
| 20260509045800 | 71 | 109 | 0.0 | 1.0 | 0.00 | 0.00 | 0.00 | 91 | 1012.2 |
| 20260509045527 | 71 | 109 | 0.0 | 1.0 | 0.00 | 0.00 | 0.00 | 91 | 1012.2 |
| 20260509044753 | 71 | 109 | 0.0 | 3.0 | 0.00 | 0.00 | 0.00 | 91 | 1012.2 |
| 20260509044251 | 71 | 109 | 1.0 | 3.0 | 0.00 | 0.00 | 0.00 | 91 | 1012.1 |
| 20260509043751 | 71 | 109 | 1.0 | 3.0 | 0.00 | 0.00 | 0.00 | 91 | 1012.0 |
| 20260509043523 | 71 | 109 | 1.0 | 3.0 | 0.00 | 0.00 | 0.00 | 91 | 1012.0 |
| 20260509042750 | 71 | 109 | 0.0 | 3.0 | 0.00 | 0.00 | 0.00 | 91 | 1012.0 |
| 20260509042249 | 71 | 107 | 0.0 | 3.0 | 0.00 | 0.00 | 0.00 | 91 | 1012.0 |
| 20260509041749 | 71 | 107 | 0.0 | 3.0 | 0.00 | 0.00 | 0.00 | 91 | 1011.8 |
| 20260509041247 | 71 | 107 | 0.0 | 0.0 | 0.00 | 0.00 | 0.00 | 90 | 1011.7 |
| 20260509040745 | 71 | 107 | 0.0 | 0.0 | 0.00 | 0.00 | 0.00 | 90 | 1011.8 |
| 20260509040244 | 71 | 107 | 0.0 | 0.0 | 0.00 | 0.00 | 0.00 | 90 | 1011.6 |
| 20260509035745 | 71 | 107 | 0.0 | 0.0 | 0.00 | 0.00 | 0.00 | 89 | 1011.5 |
| 20260509035239 | 71 | 107 | 0.0 | 1.0 | 0.00 | 0.00 | 0.00 | 89 | 1011.5 |
| 20260509034733 | 71 | 107 | 1.0 | 6.0 | 0.00 | 0.00 | 0.00 | 89 | 1011.3 |
| 20260509034227 | 71 | 107 | 1.0 | 6.0 | 0.00 | 0.00 | 0.00 | 89 | 1011.2 |
| 20260509033721 | 71 | 110 | 1.0 | 2.0 | 0.00 | 0.00 | 0.00 | 89 | 1011.0 |
| 20260509033215 | 71 | 110 | 1.0 | 3.0 | 0.00 | 0.00 | 0.00 | 89 | 1011.0 |
| 20260509032941 | 71 | 110 | 0.0 | 3.0 | 0.00 | 0.00 | 0.00 | 89 | 1011.0 |
| 20260509032203 | 71 | 110 | 0.0 | 2.0 | 0.00 | 0.00 | 0.00 | 88 | 1011.0 |
| 20260509031658 | 71 | 110 | 0.0 | 4.0 | 0.00 | 0.00 | 0.00 | 88 | 1010.9 |
| 20260509031151 | 71 | 110 | 0.0 | 4.0 | 0.00 | 0.00 | 0.00 | 88 | 1011.1 |
| 20260509030918 | 71 | 111 | 0.0 | 3.0 | 0.00 | 0.00 | 0.00 | 88 | 1011.2 |
| 20260509030139 | 71 | 111 | 0.0 | 3.0 | 0.00 | 0.00 | 0.00 | 88 | 1011.1 |
| 20260509025633 | 71 | 111 | 1.0 | 4.0 | 0.00 | 0.00 | 0.00 | 88 | 1011.1 |
| 20260509025127 | 71 | 111 | 1.0 | 4.0 | 0.00 | 0.00 | 0.00 | 88 | 1011.1 |
| 20260509024622 | 71 | 111 | 0.0 | 3.0 | 0.00 | 0.00 | 0.00 | 88 | 1011.1 |
| 20260509024351 | 71 | 111 | 0.0 | 3.0 | 0.00 | 0.00 | 0.00 | 88 | 1011.0 |
| 20260509023618 | 71 | 111 | 0.0 | 3.0 | 0.00 | 0.00 | 0.00 | 88 | 1010.9 |
| 20260509023119 | 71 | 111 | 0.0 | 0.0 | 0.00 | 0.00 | 0.00 | 87 | 1010.9 |
| 20260509022619 | 71 | 111 | 0.0 | 0.0 | 0.00 | 0.00 | 0.00 | 86 | 1010.8 |
| 20260509022119 | 71 | 111 | 0.0 | 0.0 | 0.00 | 0.00 | 0.00 | 86 | 1010.7 |
| 20260509021617 | 72 | 111 | 0.0 | 0.0 | 0.00 | 0.00 | 0.00 | 86 | 1010.6 |
| 20260509021117 | 72 | 111 | 0.0 | 1.0 | 0.00 | 0.00 | 0.00 | 86 | 1010.7 |
| 20260509020617 | 72 | 111 | 0.0 | 1.0 | 0.00 | 0.00 | 0.00 | 86 | 1010.7 |
| 20260509020117 | 72 | 111 | 1.0 | 3.0 | 0.00 | 0.00 | 0.00 | 85 | 1010.6 |
| 20260509015616 | 72 | 111 | 1.0 | 4.0 | 0.00 | 0.00 | 0.00 | 85 | 1010.4 |
| 20260509015116 | 72 | 111 | 1.0 | 4.0 | 0.00 | 0.00 | 0.00 | 85 | 1010.4 |
| 20260509014617 | 72 | 111 | 1.0 | 3.0 | 0.00 | 0.00 | 0.00 | 85 | 1010.2 |
| 20260509013617 | 73 | 111 | 0.0 | 3.0 | 0.00 | 0.00 | 0.00 | 84 | 1010.1 |
| 20260509013116 | 73 | 111 | 0.0 | 3.0 | 0.00 | 0.00 | 0.00 | 84 | 1010.0 |
| 20260509012617 | 73 | 111 | 0.0 | 3.0 | 0.00 | 0.00 | 0.00 | 84 | 1009.9 |
| 20260509012117 | 73 | 111 | 0.0 | 3.0 | 0.00 | 0.00 | 0.00 | 83 | 1010.0 |
| 20260509011847 | 74 | 111 | 0.0 | 0.0 | 0.00 | 0.00 | 0.00 | 83 | 1010.0 |
| 20260509011348 | 74 | 111 | 0.0 | 0.0 | 0.00 | 0.00 | 0.00 | 83 | 1009.9 |
| 20260509010617 | 74 | 111 | 0.0 | 0.0 | 0.00 | 0.00 | 0.00 | 83 | 1010.0 |
| 20260509010347 | 74 | 111 | 0.0 | 0.0 | 0.00 | 0.00 | 0.00 | 82 | 1010.0 |
| 20260509005615 | 74 | 111 | 0.0 | 2.0 | 0.00 | 0.00 | 0.00 | 82 | 1010.0 |
| 20260509005349 | 74 | 111 | 0.0 | 2.0 | 0.00 | 0.00 | 0.00 | 82 | 1009.8 |
| 20260509004611 | 74 | 111 | 0.0 | 3.0 | 0.00 | 0.00 | 0.00 | 81 | 1009.8 |
| 20260509004108 | 75 | 111 | 1.0 | 3.0 | 0.00 | 0.00 | 0.00 | 81 | 1009.8 |
| 20260509003606 | 75 | 111 | 1.0 | 3.0 | 0.00 | 0.00 | 0.00 | 81 | 1009.9 |
| 20260509003108 | 75 | 111 | 0.0 | 3.0 | 0.00 | 0.00 | 0.00 | 80 | 1009.9 |
| 20260509002603 | 75 | 111 | 0.0 | 3.0 | 0.00 | 0.00 | 0.00 | 80 | 1009.8 |
| 20260509002101 | 75 | 111 | 1.0 | 4.0 | 0.00 | 0.00 | 0.00 | 80 | 1009.9 |
| 20260509001601 | 75 | 111 | 1.0 | 4.0 | 0.00 | 0.00 | 0.00 | 79 | 1009.9 |
| 20260509001101 | 76 | 113 | 1.0 | 3.0 | 0.00 | 0.00 | 0.00 | 79 | 1009.9 |
| 20260509000558 | 76 | 113 | 0.0 | 3.0 | 0.00 | 0.00 | 0.00 | 79 | 1009.9 |
| 20260509000056 | 76 | 113 | 0.0 | 3.0 | 0.00 | 0.00 | 0.00 | 78 | 1009.9 |
| 20260508235554 | 76 | 113 | 0.0 | 2.0 | 0.00 | 0.00 | 0.00 | 79 | 1010.0 |
| 20260508235053 | 76 | 113 | 0.0 | 2.0 | 0.00 | 0.00 | 0.00 | 79 | 1010.0 |
| 20260508234550 | 76 | 113 | 0.0 | 4.0 | 0.00 | 0.00 | 0.00 | 80 | 1010.0 |
| 20260508234048 | 76 | 113 | 0.0 | 4.0 | 0.00 | 0.00 | 0.00 | 80 | 1010.0 |
| 20260508233549 | 75 | 113 | 0.0 | 3.0 | 0.00 | 0.00 | 0.00 | 80 | 1010.0 |
| 20260508233051 | 75 | 113 | 1.0 | 3.0 | 0.00 | 0.00 | 0.00 | 80 | 1010.0 |
| 20260508232815 | 75 | 113 | 1.0 | 3.0 | 0.00 | 0.00 | 0.00 | 79 | 1010.0 |
| 20260508232039 | 75 | 113 | 1.0 | 3.0 | 0.00 | 0.00 | 0.00 | 79 | 1010.0 |
| 20260508231532 | 75 | 113 | 1.0 | 3.0 | 0.00 | 0.00 | 0.00 | 79 | 1010.0 |
| 20260508231028 | 75 | 113 | 1.0 | 3.0 | 0.00 | 0.00 | 0.00 | 79 | 1010.0 |
| 20260508230520 | 75 | 113 | 1.0 | 6.0 | 0.00 | 0.00 | 0.00 | 79 | 1010.0 |
| 20260508230015 | 75 | 113 | 1.0 | 6.0 | 0.00 | 0.00 | 0.00 | 79 | 1010.0 |
| 20260508225508 | 75 | 112 | 1.0 | 4.0 | 0.00 | 0.00 | 0.00 | 79 | 1009.9 |
| 20260508225002 | 76 | 112 | 2.0 | 6.0 | 0.00 | 0.00 | 0.00 | 78 | 1009.9 |
| 20260508224457 | 76 | 113 | 2.0 | 6.0 | 0.00 | 0.00 | 0.00 | 79 | 1010.0 |
| 20260508223950 | 76 | 112 | 1.0 | 6.0 | 0.00 | 0.00 | 0.00 | 79 | 1010.0 |
| 20260508223716 | 76 | 112 | 1.0 | 6.0 | 0.00 | 0.00 | 0.00 | 79 | 1010.1 |
| 20260508223210 | 75 | 112 | 1.0 | 7.0 | 0.00 | 0.00 | 0.00 | 79 | 1010.2 |
| 20260508222432 | 75 | 111 | 2.0 | 7.0 | 0.00 | 0.00 | 0.00 | 80 | 1010.2 |
| 20260508221926 | 74 | 111 | 2.0 | 4.0 | 0.00 | 0.00 | 0.00 | 80 | 1010.4 |
| 20260508221421 | 74 | 111 | 2.0 | 6.0 | 0.00 | 0.00 | 0.00 | 81 | 1010.4 |
| 20260508221145 | 74 | 111 | 1.0 | 6.0 | 0.00 | 0.00 | 0.00 | 81 | 1010.4 |
| 20260508220409 | 74 | 111 | 1.0 | 6.0 | 0.00 | 0.00 | 0.00 | 81 | 1010.4 |
| 20260508215904 | 74 | 111 | 1.0 | 6.0 | 0.00 | 0.00 | 0.00 | 81 | 1010.5 |
| 20260508215357 | 74 | 112 | 2.0 | 4.0 | 0.00 | 0.00 | 0.00 | 81 | 1010.5 |
| 20260508215122 | 74 | 112 | 2.0 | 6.0 | 0.00 | 0.00 | 0.00 | 80 | 1010.5 |